| time (UTC) | temp F | wind direction | speed knots | gust knots | rain 1hr in | rain 24hr in | rain mn in | humidity % | barometer mb |
| 20260904083017 | 65 | 203 | 5.2 | 9.6 | 0.00 | 0.21 | 0.00 | 91 | 1017.9 |
| 20260904082017 | 30 | 5 | 8.7 | 10.4 | 0.00 | 0.20 | 0.20 | 21 | 1049.8 |
| 20260904081017 | 64 | 203 | 4.3 | 7.8 | 0.00 | 0.21 | 0.00 | 93 | 1018.0 |
| 20260904080017 | 64 | 203 | 3.5 | 6.1 | 0.00 | 0.21 | 0.00 | 94 | 1018.2 |
| 20260904075017 | 63 | 203 | 3.5 | 4.3 | 0.00 | 0.21 | 0.00 | 94 | 1018.1 |
| 20260904074017 | 30 | 2 | 8.7 | 10.4 | 0.00 | 0.20 | 0.20 | 20 | 1049.2 |
| 20260904073037 | 31 | 2 | 8.7 | 10.4 | 0.00 | 0.20 | 0.20 | 20 | 1049.1 |
| 20260904072017 | 61 | 180 | 3.5 | 5.2 | 0.00 | 0.21 | 0.00 | 94 | 1018.2 |
| 20260904071037 | 61 | 180 | 3.5 | 5.2 | 0.00 | 0.21 | 0.00 | 94 | 1018.2 |
| 20260904070017 | 31 | 0 | 8.7 | 10.4 | 0.00 | 0.20 | 0.20 | 20 | 1048.9 |
| 20260904065018 | 61 | 180 | 2.6 | 7.0 | 0.00 | 0.21 | 0.00 | 95 | 1018.2 |
| 20260904064017 | 32 | 0 | 8.7 | 10.4 | 0.00 | 0.20 | 0.20 | 20 | 1048.8 |
| 20260904063017 | 60 | 180 | 2.6 | 4.3 | 0.00 | 0.21 | 0.00 | 95 | 1018.1 |
| 20260904062017 | 59 | 158 | 0.9 | 3.5 | 0.00 | 0.21 | 0.00 | 95 | 1018.1 |
| 20260904061017 | 34 | 0 | 8.7 | 10.4 | 0.00 | 0.20 | 0.20 | 20 | 1048.8 |
| 20260904060017 | 34 | 0 | 8.7 | 10.4 | 0.00 | 0.20 | 0.20 | 20 | 1048.8 |
| 20260904055017 | 35 | 1 | 8.7 | 10.4 | 0.00 | 0.20 | 0.20 | 20 | 1048.9 |
| 20260904054017 | 58 | 0.0 | 1.7 | 0.00 | 0.21 | 0.00 | 95 | 1018.1 | |
| 20260904053017 | 57 | 0.0 | 0.9 | 0.00 | 0.21 | 0.00 | 95 | 1018.3 | |
| 20260904052017 | 36 | 2 | 8.7 | 10.4 | 0.00 | 0.20 | 0.20 | 20 | 1049.2 |
| 20260904051017 | 37 | 3 | 8.7 | 10.4 | 0.00 | 0.20 | 0.20 | 20 | 1049.3 |
| 20260904050017 | 38 | 3 | 8.7 | 10.4 | 0.00 | 0.20 | 0.20 | 21 | 1049.4 |
| 20260904045017 | 38 | 4 | 8.7 | 10.4 | 0.00 | 0.20 | 0.20 | 21 | 1049.6 |
| 20260904044017 | 39 | 5 | 8.7 | 10.4 | 0.00 | 0.20 | 0.20 | 21 | 1049.8 |
| 20260904043017 | 40 | 6 | 8.7 | 10.4 | 0.00 | 0.20 | 0.20 | 21 | 1049.9 |
| 20260904042017 | 41 | 7 | 8.7 | 10.4 | 0.00 | 0.20 | 0.20 | 21 | 1050.2 |
| 20260904041037 | 41 | 8 | 8.7 | 10.4 | 0.00 | 0.20 | 0.20 | 21 | 1050.4 |
| 20260904040017 | 42 | 9 | 8.7 | 10.4 | 0.00 | 0.20 | 0.20 | 22 | 1050.6 |
| 20260904035017 | 43 | 11 | 8.7 | 10.4 | 0.00 | 0.20 | 0.20 | 22 | 1050.9 |
| 20260904034017 | 56 | 158 | 0.9 | 2.6 | 0.00 | 0.21 | 0.00 | 95 | 1018.4 |
| 20260904033017 | 45 | 13 | 8.7 | 10.4 | 0.00 | 0.20 | 0.20 | 22 | 1051.4 |
| 20260904032017 | 45 | 15 | 8.7 | 10.4 | 0.00 | 0.20 | 0.20 | 22 | 1051.7 |
| 20260904031017 | 46 | 16 | 8.7 | 9.6 | 0.00 | 0.20 | 0.20 | 23 | 1052.0 |
| 20260904030017 | 47 | 18 | 7.8 | 9.6 | 0.00 | 0.20 | 0.20 | 23 | 1052.4 |
| 20260904025017 | 48 | 20 | 7.8 | 9.6 | 0.00 | 0.20 | 0.20 | 23 | 1052.7 |
| 20260904024017 | 49 | 22 | 7.8 | 9.6 | 0.00 | 0.20 | 0.20 | 24 | 1053.1 |
| 20260904023017 | 50 | 24 | 7.8 | 9.6 | 0.00 | 0.20 | 0.20 | 24 | 1053.5 |
| 20260904022037 | 51 | 26 | 7.8 | 9.6 | 0.00 | 0.20 | 0.20 | 24 | 1053.9 |
| 20260904021017 | 52 | 28 | 7.8 | 9.6 | 0.00 | 0.20 | 0.20 | 25 | 1054.3 |
| 20260904020017 | 52 | 30 | 7.8 | 9.6 | 0.00 | 0.20 | 0.20 | 25 | 1054.7 |
| 20260904015016 | 55 | 0.0 | 0.9 | 0.00 | 0.21 | 0.00 | 94 | 1019.1 | |
| 20260904014057 | 54 | 34 | 7.8 | 9.6 | 0.02 | 0.20 | 0.20 | 26 | 1055.6 |
| 20260904013017 | 55 | 37 | 7.8 | 9.6 | 0.03 | 0.20 | 0.20 | 26 | 1056.0 |
| 20260904012017 | 56 | 39 | 7.8 | 9.6 | 0.04 | 0.20 | 0.20 | 27 | 1056.5 |
| 20260904011018 | 57 | 0.0 | 0.0 | 0.00 | 0.21 | 0.00 | 94 | 1019.4 | |
| 20260904010017 | 57 | 44 | 7.8 | 9.6 | 0.06 | 0.20 | 0.20 | 27 | 1057.5 |
| 20260904005017 | 58 | 47 | 7.8 | 8.7 | 0.06 | 0.20 | 0.19 | 28 | 1058.0 |
| 20260904004017 | 59 | 49 | 7.8 | 8.7 | 0.06 | 0.20 | 0.18 | 28 | 1058.5 |
| 20260904003037 | 60 | 52 | 7.8 | 8.7 | 0.07 | 0.20 | 0.17 | 29 | 1059.1 |
| 20260904002017 | 61 | 55 | 7.0 | 8.7 | 0.07 | 0.20 | 0.16 | 29 | 1059.6 |
| 20260904001017 | 61 | 58 | 7.0 | 8.7 | 0.07 | 0.20 | 0.15 | 30 | 1060.2 |
| 20260904000017 | 62 | 61 | 7.0 | 8.7 | 0.07 | 0.20 | 0.14 | 30 | 1060.8 |
| 20260903235017 | 63 | 64 | 7.0 | 8.7 | 0.07 | 0.20 | 0.13 | 31 | 1061.4 |
| 20260903234037 | 63 | 67 | 7.0 | 8.7 | 0.07 | 0.20 | 0.12 | 31 | 1062.0 |
| 20260903233017 | 64 | 70 | 7.0 | 8.7 | 0.06 | 0.20 | 0.10 | 32 | 1062.6 |
| 20260903232017 | 65 | 73 | 7.0 | 8.7 | 0.06 | 0.20 | 0.09 | 32 | 1063.2 |
| 20260903231037 | 65 | 76 | 7.0 | 7.8 | 0.06 | 0.20 | 0.08 | 33 | 1063.8 |
| 20260903230017 | 66 | 79 | 7.0 | 7.8 | 0.07 | 0.20 | 0.07 | 33 | 1064.5 |
| 20260903225037 | 66 | 83 | 7.0 | 7.8 | 0.06 | 0.20 | 0.06 | 34 | 1065.1 |
| 20260903224017 | 67 | 86 | 7.0 | 7.8 | 0.05 | 0.20 | 0.05 | 34 | 1065.8 |
| 20260903223017 | 67 | 89 | 7.0 | 7.8 | 0.04 | 0.20 | 0.04 | 35 | 1066.4 |
| 20260903222018 | 60 | 158 | 0.9 | 1.7 | 0.00 | 0.21 | 0.00 | 94 | 1020.6 |
| 20260903221038 | 60 | 0.0 | 0.9 | 0.00 | 0.21 | 0.00 | 94 | 1020.8 | |
| 20260903220018 | 60 | 0.0 | 1.7 | 0.00 | 0.21 | 0.21 | 94 | 1020.7 | |
| 20260903215037 | 69 | 103 | 6.1 | 7.8 | 0.00 | 0.20 | 0.20 | 37 | 1069.2 |
| 20260903214017 | 69 | 107 | 6.1 | 7.0 | 0.00 | 0.20 | 0.20 | 38 | 1069.9 |
| 20260903213037 | 69 | 110 | 6.1 | 7.0 | 0.00 | 0.20 | 0.20 | 38 | 1070.6 |
| 20260903212017 | 60 | 0.0 | 0.9 | 0.00 | 0.21 | 0.21 | 93 | 1020.6 | |
| 20260903211017 | 60 | 0.0 | 0.0 | 0.00 | 0.21 | 0.21 | 94 | 1020.9 | |
| 20260903210017 | 60 | 0.0 | 0.0 | 0.00 | 0.21 | 0.21 | 94 | 1020.9 | |
| 20260903205018 | 60 | 0.0 | 0.0 | 0.00 | 0.21 | 0.21 | 94 | 1020.7 | |
| 20260903204037 | 60 | 0.0 | 0.0 | 0.00 | 0.21 | 0.21 | 93 | 1020.7 | |
| 20260903203017 | 70 | 133 | 5.2 | 7.0 | 0.00 | 0.20 | 0.20 | 42 | 1075.0 |
| 20260903202017 | 60 | 158 | 0.9 | 1.7 | 0.00 | 0.21 | 0.21 | 93 | 1020.6 |
| 20260903201017 | 60 | 158 | 1.7 | 3.5 | 0.00 | 0.21 | 0.21 | 93 | 1020.7 |
| 20260903200037 | 70 | 144 | 5.2 | 6.1 | 0.00 | 0.20 | 0.20 | 44 | 1077.3 |
| 20260903195017 | 70 | 148 | 5.2 | 6.1 | 0.00 | 0.20 | 0.20 | 45 | 1078.0 |
| 20260903194017 | 70 | 152 | 5.2 | 6.1 | 0.00 | 0.20 | 0.20 | 45 | 1078.8 |
| 20260903193017 | 69 | 156 | 5.2 | 6.1 | 0.00 | 0.20 | 0.20 | 46 | 1079.6 |
| 20260903192017 | 69 | 159 | 5.2 | 6.1 | 0.00 | 0.20 | 0.20 | 47 | 1080.3 |
| 20260903191016 | 69 | 163 | 4.3 | 6.1 | 0.00 | 0.20 | 0.20 | 47 | 1081.1 |
| 20260903190017 | 69 | 167 | 4.3 | 5.2 | 0.00 | 0.20 | 0.20 | 48 | 1081.9 |
| 20260903185017 | 68 | 171 | 4.3 | 5.2 | 0.00 | 0.20 | 0.20 | 49 | 1082.7 |
| 20260903184017 | 68 | 175 | 4.3 | 5.2 | 0.00 | 0.20 | 0.20 | 49 | 1083.4 |
| 20260903183017 | 67 | 179 | 4.3 | 5.2 | 0.00 | 0.20 | 0.20 | 50 | 1084.2 |
| 20260903182017 | 67 | 183 | 4.3 | 5.2 | 0.00 | 0.20 | 0.20 | 51 | 1085.0 |
| 20260903181017 | 66 | 187 | 4.3 | 5.2 | 0.00 | 0.20 | 0.20 | 51 | 1085.8 |
| 20260903180017 | 66 | 191 | 4.3 | 5.2 | 0.00 | 0.20 | 0.20 | 52 | 1086.5 |
| 20260903175017 | 65 | 195 | 4.3 | 5.2 | 0.00 | 0.20 | 0.20 | 52 | 1087.3 |
| 20260903174017 | 65 | 199 | 3.5 | 4.3 | 0.00 | 0.20 | 0.20 | 53 | 1088.1 |
| 20260903173017 | 64 | 203 | 3.5 | 4.3 | 0.00 | 0.20 | 0.20 | 54 | 1088.9 |
| 20260903172017 | 64 | 206 | 3.5 | 4.3 | 0.00 | 0.20 | 0.20 | 54 | 1089.6 |
| 20260903171018 | 61 | 90 | 0.9 | 2.6 | 0.02 | 0.21 | 0.21 | 92 | 1019.2 |
| 20260903170017 | 62 | 214 | 3.5 | 4.3 | 0.00 | 0.20 | 0.20 | 56 | 1091.2 |
| 20260903165017 | 62 | 218 | 3.5 | 4.3 | 0.00 | 0.20 | 0.20 | 56 | 1091.9 |
| 20260903164017 | 61 | 222 | 3.5 | 4.3 | 0.00 | 0.20 | 0.20 | 57 | 1092.7 |
| 20260903163017 | 60 | 226 | 3.5 | 4.3 | 0.00 | 0.20 | 0.20 | 58 | 1093.4 |
| 20260903162017 | 59 | 229 | 3.5 | 3.5 | 0.00 | 0.20 | 0.20 | 58 | 1094.2 |
| 20260903161017 | 59 | 233 | 3.5 | 3.5 | 0.00 | 0.20 | 0.20 | 59 | 1094.9 |
| 20260903160037 | 58 | 237 | 2.6 | 3.5 | 0.00 | 0.20 | 0.20 | 59 | 1095.7 |
| 20260903155017 | 57 | 241 | 2.6 | 3.5 | 0.00 | 0.20 | 0.20 | 60 | 1096.4 |
| 20260903154017 | 56 | 244 | 2.6 | 3.5 | 0.00 | 0.20 | 0.20 | 61 | 1097.1 |
| 20260903153017 | 55 | 248 | 2.6 | 3.5 | 0.00 | 0.20 | 0.20 | 61 | 1097.8 |
| 20260903152017 | 55 | 252 | 2.6 | 3.5 | 0.00 | 0.20 | 0.20 | 62 | 1098.6 |
| 20260903151017 | 54 | 255 | 2.6 | 3.5 | 0.00 | 0.20 | 0.20 | 63 | 1099.3 |
| 20260903150017 | 53 | 259 | 2.6 | 2.6 | 0.00 | 0.20 | 0.20 | 63 | 1100.0 |
| 20260903145017 | 52 | 262 | 2.6 | 2.6 | 0.00 | 0.20 | 0.20 | 64 | 1100.7 |
| 20260903144018 | 62 | 270 | 0.9 | 2.6 | 0.06 | 0.09 | 0.09 | 87 | 1020.2 |
| 20260903143019 | 63 | 293 | 2.6 | 5.2 | 0.06 | 0.08 | 0.08 | 86 | 1020.5 |
| 20260903143017 | 50 | 269 | 2.6 | 2.6 | 0.00 | 0.20 | 0.20 | 65 | 1102.0 |
| 20260903142017 | 63 | 225 | 2.6 | 3.5 | 0.06 | 0.07 | 0.07 | 84 | 1020.5 |
| 20260903141018 | 63 | 203 | 2.6 | 3.5 | 0.06 | 0.06 | 0.06 | 84 | 1020.3 |
| 20260903140018 | 63 | 225 | 3.5 | 5.2 | 0.05 | 0.05 | 0.05 | 82 | 1020.3 |
| 20260903135037 | 47 | 282 | 1.7 | 2.6 | 0.00 | 0.20 | 0.20 | 67 | 1104.7 |
| 20260903134038 | 64 | 225 | 2.6 | 3.5 | 0.03 | 0.03 | 0.03 | 80 | 1020.5 |
| 20260903133017 | 45 | 289 | 1.7 | 1.7 | 0.00 | 0.20 | 0.20 | 68 | 1105.9 |
| 20260903132019 | 66 | 225 | 3.5 | 7.0 | 0.01 | 0.01 | 0.01 | 73 | 1020.8 |
| 20260903132017 | 44 | 292 | 1.7 | 1.7 | 0.00 | 0.20 | 0.20 | 69 | 1106.5 |
| 20260903131017 | 68 | 225 | 5.2 | 9.6 | 0.00 | 0.00 | 0.00 | 70 | 1020.9 |
| 20260903130017 | 43 | 298 | 1.7 | 1.7 | 0.00 | 0.20 | 0.20 | 70 | 1107.7 |
| 20260903125037 | 42 | 301 | 1.7 | 1.7 | 0.00 | 0.20 | 0.20 | 70 | 1108.3 |
| 20260903125017 | 70 | 225 | 5.2 | 9.6 | 0.00 | 0.00 | 0.00 | 61 | 1020.6 |
| 20260903124017 | 70 | 203 | 4.3 | 8.7 | 0.00 | 0.00 | 0.00 | 61 | 1020.4 |
| 20260903123017 | 40 | 307 | 0.9 | 1.7 | 0.00 | 0.20 | 0.20 | 71 | 1109.4 |
| 20260903122038 | 71 | 248 | 7.8 | 13.9 | 0.00 | 0.00 | 0.00 | 60 | 1020.5 |
| 20260903122017 | 39 | 309 | 0.9 | 1.7 | 0.00 | 0.20 | 0.20 | 72 | 1110.0 |
| 20260903121018 | 73 | 248 | 7.8 | 15.6 | 0.00 | 0.00 | 0.00 | 56 | 1020.9 |
| 20260903120037 | 73 | 270 | 6.1 | 13.0 | 0.00 | 0.00 | 0.00 | 58 | 1020.9 |
| 20260903120017 | 38 | 315 | 0.9 | 1.7 | 0.00 | 0.20 | 0.20 | 72 | 1111.0 |
| 20260903115037 | 37 | 317 | 0.9 | 0.9 | 0.00 | 0.20 | 0.20 | 73 | 1111.5 |
| 20260903114017 | 37 | 320 | 0.9 | 0.9 | 0.00 | 0.20 | 0.20 | 73 | 1112.0 |
| 20260903113017 | 70 | 270 | 4.3 | 8.7 | 0.00 | 0.00 | 0.00 | 62 | 1020.9 |
| 20260903112037 | 70 | 248 | 5.2 | 11.3 | 0.00 | 0.00 | 0.00 | 59 | 1021.1 |
| 20260903112017 | 35 | 325 | 0.9 | 0.9 | 0.00 | 0.20 | 0.20 | 74 | 1113.0 |
| 20260903111017 | 35 | 327 | 0.9 | 0.9 | 0.00 | 0.20 | 0.20 | 74 | 1113.4 |
| 20260903110037 | 70 | 248 | 6.1 | 11.3 | 0.00 | 0.00 | 0.00 | 59 | 1021.1 |
| 20260903110017 | 34 | 329 | 0.9 | 0.9 | 0.00 | 0.20 | 0.20 | 75 | 1113.9 |
| 20260903105017 | 70 | 270 | 5.2 | 11.3 | 0.00 | 0.00 | 0.00 | 59 | 1021.1 |
| 20260903104017 | 33 | 333 | 0.9 | 0.9 | 0.00 | 0.20 | 0.20 | 76 | 1114.7 |
| 20260903103017 | 33 | 335 | 0.9 | 0.9 | 0.00 | 0.20 | 0.20 | 76 | 1115.1 |
| 20260903102017 | 32 | 337 | 0.9 | 0.9 | 0.00 | 0.20 | 0.20 | 76 | 1115.5 |
| 20260903101017 | 32 | 339 | 0.9 | 0.9 | 0.00 | 0.20 | 0.20 | 77 | 1115.9 |
| 20260903100017 | 32 | 341 | 0.9 | 0.9 | 0.00 | 0.20 | 0.20 | 77 | 1116.2 |
| 20260903095017 | 70 | 315 | 3.5 | 7.8 | 0.00 | 0.00 | 0.00 | 57 | 1021.4 |
| 20260903094017 | 71 | 248 | 5.2 | 8.7 | 0.00 | 0.00 | 0.00 | 54 | 1021.3 |
| 20260903093017 | 71 | 203 | 3.5 | 7.8 | 0.00 | 0.00 | 0.00 | 57 | 1021.4 |
| 20260903092017 | 31 | 347 | 0.0 | 0.0 | 0.00 | 0.20 | 0.20 | 78 | 1117.5 |
| 20260903091017 | 30 | 349 | 0.0 | 0.0 | 0.00 | 0.20 | 0.20 | 78 | 1117.8 |
| 20260903090017 | 30 | 350 | 0.0 | 0.0 | 0.00 | 0.20 | 0.20 | 78 | 1118.0 |
| 20260903085017 | 30 | 351 | 0.0 | 0.0 | 0.00 | 0.20 | 0.20 | 79 | 1118.3 |
| 20260903084017 | 68 | 248 | 3.5 | 7.8 | 0.00 | 0.00 | 0.00 | 62 | 1021.8 |